User: anonymous   Login
Location: Plymouth
(43.7570°N, 71.6890°W)
Time: 10:10:59
(UTC-04:00)
Language:

Meteor 1-28 Rocket - Orbit

View from above orbital plane
View from above orbital plane
View from above satellite
View from above satellite

Ground track
Ground track

The orbit data is extracted from the following two-line orbital elements,

1 10114U 77057B   16207.20919754  .00000565  00000-0  32287-4 0  9998
2 10114  97.2025  40.0552 0014953  28.4164 331.7882 15.16326863133995
Epoch (UTC): 25 July 2016 05:01:14
Eccentricity: 0.0014953
inclination: 97.2025°
perigee height: 506 km
apogee height: 527 km
right ascension of ascending node: 40.0552°
argument of perigee: 28.4164°
revolutions per day: 15.16326863
mean anomaly at epoch: 331.7882°
orbit number at epoch: 13399

The dashed part of the orbit path shows where the satellite is in the earth's shadow,  

DLR